This demonstration page uses our WeatherBlox Daily Observations layout. Learn more.

Left ArrowRight Arrow

Hourly Observations for October 19, 2022

Temp ( °F °C ) Dew Point ( °F °C ) Humidity (%) Winds ( mph kmh ) Pressure ( in mb ) Visibility ( mi km ) Precip ( " mm )
12:51 am 00:51 Clear 59 15 44 6.7 58 58 E 13 20 30.14 1021 10 16 0.00 0.00
1:51 am 01:51 Clear 57 13.9 45 7.2 64 64 E 14 22 30.14 1021 10 16 0.00 0.00
2:51 am 02:51 Clear 56 13.3 45 7.2 66 66 E 12 19 30.15 1021 10 16 0.00 0.00
3:51 am 03:51 Clear 55 12.8 45 7.2 69 69 ENE 13 20 30.16 1021 10 16 0.00 0.00
4:51 am 04:51 Clear 55 12.8 45 7.2 69 69 E 13 20 30.18 1022 10 16 0.00 0.00
5:51 am 05:51 Clear 55 12.8 45 7.2 69 69 E 13 20 30.20 1023 10 16 0.00 0.00
6:51 am 06:51 Sunny 53 11.7 45 7.2 74 74 E 9 15 30.22 1024 10 16 0.00 0.00
7:51 am 07:51 Sunny 58 14.4 46 7.8 65 65 ESE 10 17 30.24 1024 10 16 0.00 0.00
8:51 am 08:51 Sunny 62 16.7 44 6.7 52 52 ESE 14 22 30.25 1024 10 16 0.00 0.00
9:51 am 09:51 Sunny 64 17.8 43 6.1 46 46 ESE 15 24 30.24 1024 10 16 0.00 0.00
10:51 am 10:51 Sunny 68 20 44 6.7 42 42 E 13 20 30.21 1023 10 16 0.00 0.00
11:51 am 11:51 Sunny 71 21.7 42 5.6 35 35 ESE 10 17 30.17 1022 10 16 0.00 0.00
12:51 pm 12:51 Sunny 73 22.8 42 5.6 33 33 E 10 17 30.12 1020 10 16 0.00 0.00
1:51 pm 13:51 Sunny 75 23.9 39 3.9 27 27 SE 9 15 30.09 1019 10 16 0.00 0.00
2:51 pm 14:51 undefined 76 24.4 36 2.2 23 23 E 10 17 30.06 1018 10 16 0.00 0.00
3:51 pm 15:51 Sunny 77 25 36 2.2 23 23 SE 12 19 30.04 1017 10 16 0.00 0.00
4:51 pm 16:51 Sunny 75 23.9 38 3.3 26 26 SSE 9 15 30.03 1017 10 16 0.00 0.00
5:51 pm 17:51 Clear 70 21.1 39 3.9 32 32 S 8 13 30.05 1018 10 16 0.00 0.00
6:51 pm 18:51 Clear 65 18.3 41 5 41 41 ESE 5 7 30.08 1019 10 16 0.00 0.00
7:51 pm 19:51 Clear 64 17.8 40 4.4 41 41 ESE 9 15 30.09 1019 10 16 0.00 0.00
8:51 pm 20:51 Clear 61 16.1 41 5 48 48 SE 9 15 30.09 1019 10 16 0.00 0.00
9:51 pm 21:51 Clear 60 15.6 41 5 49 49 SSE 9 15 30.10 1019 10 16 0.00 0.00
10:51 pm 22:51 Clear 56 13.3 41 5 57 57 ESE 6 9 30.11 1020 10 16 0.00 0.00
11:51 pm 23:51 Clear 56 13.3 42 5.6 60 60 SE 7 11 30.10 1019 10 16 0.00 0.00

Powered by AerisWeather